Meteo pe oră la Allur Reservior Lake

Astăzi, 22 Ianuarie, Vineri

Timp Temperatura Precipitaţii Vânt Presiune Umiditate
00:00 +25°C° 0 mm 3 m/s 757 mmHg 92%
01:00 +25°C° 0 mm 3 m/s 757 mmHg 94%
02:00 +25°C° 0 mm 3 m/s 757 mmHg 95%
03:00 +25°C° 0 mm 3 m/s 757 mmHg 95%
04:00 +24°C° 0 mm 3 m/s 757 mmHg 96%
05:00 +24°C° 0 mm 3 m/s 757 mmHg 96%
06:00 +25°C° 0 mm 3 m/s 758 mmHg 91%
07:00 +26°C° 0 mm 2 m/s 758 mmHg 86%
08:00 +27°C° 0 mm 2 m/s 759 mmHg 81%
09:00 +29°C° 0 mm 3 m/s 759 mmHg 73%
10:00 +30°C° 0 mm 3 m/s 759 mmHg 65%
11:00 +33°C° 0 mm 3 m/s 759 mmHg 57%
12:00 +33°C° 0 mm 3 m/s 758 mmHg 57%
13:00 +33°C° 0 mm 4 m/s 757 mmHg 57%
14:00 +33°C° 0 mm 4 m/s 756 mmHg 57%
15:00 +32°C° 0 mm 4 m/s 756 mmHg 61%
16:00 +30°C° 0 mm 3 m/s 756 mmHg 65%
17:00 +29°C° 0 mm 3 m/s 757 mmHg 69%
18:00 +28°C° 0 mm 3 m/s 757 mmHg 72%
19:00 +27°C° 0 mm 3 m/s 758 mmHg 75%
20:00 +26°C° 0 mm 3 m/s 758 mmHg 78%
21:00 +26°C° 0 mm 3 m/s 758 mmHg 79%
22:00 +26°C° 0 mm 3 m/s 758 mmHg 80%
23:00 +26°C° 0 mm 3 m/s 758 mmHg 81%

Mâine, 23 Ianuarie, Sâmbătă

Timp Temperatura Precipitaţii Vânt Presiune Umiditate
00:00 +25°C° 0 mm 3 m/s 757 mmHg 83%
01:00 +25°C° 0 mm 3 m/s 757 mmHg 85%
02:00 +24°C° 0 mm 3 m/s 757 mmHg 87%
03:00 +24°C° 0 mm 3 m/s 757 mmHg 89%
04:00 +24°C° 0 mm 3 m/s 757 mmHg 91%
05:00 +22°C° 0 mm 3 m/s 757 mmHg 93%
06:00 +24°C° 0 mm 3 m/s 758 mmHg 88%
07:00 +25°C° 0 mm 2 m/s 758 mmHg 84%
08:00 +26°C° 0 mm 2 m/s 759 mmHg 80%
09:00 +28°C° 0 mm 3 m/s 759 mmHg 72%
10:00 +30°C° 0 mm 3 m/s 759 mmHg 63%
11:00 +31°C° 0 mm 3 m/s 759 mmHg 55%
12:00 +33°C° 0 mm 4 m/s 758 mmHg 54%
13:00 +33°C° 0 mm 4 m/s 758 mmHg 53%
14:00 +33°C° 0 mm 4 m/s 757 mmHg 52%
15:00 +32°C° 0 mm 4 m/s 757 mmHg 57%
16:00 +30°C° 0 mm 4 m/s 757 mmHg 62%
17:00 +28°C° 0 mm 4 m/s 757 mmHg 66%
18:00 +28°C° 0 mm 4 m/s 757 mmHg 70%
19:00 +27°C° 0 mm 4 m/s 758 mmHg 74%
20:00 +26°C° 0 mm 3 m/s 758 mmHg 77%
21:00 +25°C° 0 mm 3 m/s 758 mmHg 79%
22:00 +25°C° 0 mm 3 m/s 758 mmHg 81%
23:00 +25°C° 0 mm 3 m/s 758 mmHg 82%

Poimâine, 24 Ianuarie, Duminică

Timp Temperatura Precipitaţii Vânt Presiune Umiditate
00:00 +24°C° 0 mm 3 m/s 758 mmHg 84%
01:00 +24°C° 0 mm 3 m/s 757 mmHg 85%
02:00 +24°C° 0 mm 3 m/s 757 mmHg 87%
03:00 +22°C° 0 mm 3 m/s 757 mmHg 88%
04:00 +22°C° 0 mm 3 m/s 757 mmHg 89%
05:00 +21°C° 0 mm 3 m/s 757 mmHg 90%
06:00 +24°C° 0 mm 3 m/s 758 mmHg 85%
07:00 +25°C° 0 mm 3 m/s 759 mmHg 80%
08:00 +26°C° 0 mm 3 m/s 759 mmHg 75%
09:00 +28°C° 0 mm 3 m/s 759 mmHg 67%
10:00 +29°C° 0 mm 3 m/s 759 mmHg 60%
11:00 +32°C° 0 mm 4 m/s 759 mmHg 53%
12:00 +32°C° 0 mm 4 m/s 759 mmHg 51%
13:00 +33°C° 0 mm 4 m/s 758 mmHg 49%
14:00 +33°C° 0 mm 4 m/s 757 mmHg 47%
15:00 +32°C° 0 mm 4 m/s 757 mmHg 52%
16:00 +29°C° 0 mm 4 m/s 757 mmHg 58%
17:00 +28°C° 0 mm 4 m/s 757 mmHg 63%
18:00 +27°C° 0 mm 4 m/s 758 mmHg 67%
19:00 +26°C° 0 mm 3 m/s 758 mmHg 71%
20:00 +25°C° 0 mm 3 m/s 759 mmHg 75%
21:00 +25°C° 0 mm 3 m/s 759 mmHg 75%
22:00 +25°C° 0 mm 3 m/s 759 mmHg 76%
23:00 +24°C° 0 mm 2 m/s 759 mmHg 77%

25 Ianuarie, Luni

Timp Temperatura Precipitaţii Vânt Presiune Umiditate
00:00 +24°C° 0 mm 3 m/s 759 mmHg 78%
01:00 +24°C° 0 mm 3 m/s 758 mmHg 80%
02:00 +22°C° 0 mm 3 m/s 758 mmHg 81%
03:00 +22°C° 0 mm 3 m/s 758 mmHg 83%
04:00 +21°C° 0 mm 3 m/s 758 mmHg 85%
05:00 +21°C° 0 mm 2 m/s 758 mmHg 87%
06:00 +23°C° 0 mm 2 m/s 758 mmHg 82%
07:00 +24°C° 0 mm 3 m/s 759 mmHg 77%
08:00 +25°C° 0 mm 3 m/s 759 mmHg 72%
09:00 +27°C° 0 mm 3 m/s 759 mmHg 64%
10:00 +29°C° 0 mm 3 m/s 759 mmHg 57%
11:00 +32°C° 0 mm 4 m/s 759 mmHg 49%
12:00 +32°C° 0 mm 4 m/s 759 mmHg 48%
13:00 +32°C° 0 mm 4 m/s 758 mmHg 47%
14:00 +31°C° 0 mm 3 m/s 757 mmHg 46%
15:00 +30°C° 0 mm 3 m/s 757 mmHg 50%
16:00 +29°C° 0 mm 3 m/s 757 mmHg 54%
17:00 +28°C° 0 mm 3 m/s 757 mmHg 58%
18:00 +27°C° 0 mm 3 m/s 758 mmHg 62%
19:00 +26°C° 0 mm 2 m/s 758 mmHg 65%
20:00 +25°C° 0 mm 2 m/s 759 mmHg 68%
21:00 +24°C° 0 mm 2 m/s 759 mmHg 70%
22:00 +24°C° 0 mm 1 m/s 759 mmHg 71%
23:00 +23°C° 0 mm 1 m/s 758 mmHg 72%

26 Ianuarie, Marţi

Timp Temperatura Precipitaţii Vânt Presiune Umiditate
00:00 +23°C° 0 mm 1 m/s 758 mmHg 74%
01:00 +21°C° 0 mm 2 m/s 758 mmHg 76%
02:00 +21°C° 0 mm 2 m/s 757 mmHg 77%
03:00 +21°C° 0 mm 2 m/s 757 mmHg 79%
04:00 +20°C° 0 mm 2 m/s 757 mmHg 80%
05:00 +20°C° 0 mm 2 m/s 757 mmHg 81%
06:00 +21°C° 0 mm 2 m/s 758 mmHg 76%
07:00 +23°C° 0 mm 2 m/s 758 mmHg 71%
08:00 +25°C° 0 mm 2 m/s 759 mmHg 67%
09:00 +27°C° 0 mm 2 m/s 759 mmHg 59%
10:00 +29°C° 0 mm 2 m/s 759 mmHg 51%
11:00 +31°C° 0 mm 3 m/s 759 mmHg 43%
12:00 +31°C° 0 mm 3 m/s 758 mmHg 42%
13:00 +31°C° 0 mm 3 m/s 757 mmHg 40%
14:00 +33°C° 0 mm 4 m/s 757 mmHg 39%
15:00 +31°C° 0 mm 3 m/s 757 mmHg 44%
16:00 +29°C° 0 mm 3 m/s 757 mmHg 50%
17:00 +28°C° 0 mm 3 m/s 757 mmHg 56%
18:00 +27°C° 0 mm 3 m/s 757 mmHg 60%
19:00 +25°C° 0 mm 3 m/s 758 mmHg 63%
20:00 +24°C° 0 mm 2 m/s 758 mmHg 67%
21:00 +24°C° 0 mm 2 m/s 758 mmHg 69%
22:00 +23°C° 0 mm 2 m/s 758 mmHg 70%
23:00 +23°C° 0 mm 2 m/s 758 mmHg 72%

27 Ianuarie, Miercuri

Timp Temperatura Precipitaţii Vânt Presiune Umiditate
00:00 +21°C° 0 mm 2 m/s 757 mmHg 73%
01:00 +21°C° 0 mm 2 m/s 757 mmHg 75%
02:00 +20°C° 0 mm 2 m/s 757 mmHg 77%
03:00 +20°C° 0 mm 2 m/s 757 mmHg 77%
04:00 +20°C° 0 mm 2 m/s 757 mmHg 77%
05:00 +20°C° 0 mm 2 m/s 757 mmHg 77%
06:00 +21°C° 0 mm 2 m/s 757 mmHg 73%
07:00 +23°C° 0 mm 2 m/s 758 mmHg 70%
08:00 +24°C° 0 mm 2 m/s 758 mmHg 66%
09:00 +26°C° 0 mm 2 m/s 758 mmHg 60%
10:00 +28°C° 0 mm 3 m/s 758 mmHg 53%
11:00 +30°C° 0 mm 3 m/s 758 mmHg 47%
12:00 +30°C° 0 mm 3 m/s 757 mmHg 46%
13:00 +31°C° 0 mm 3 m/s 757 mmHg 45%
14:00 +32°C° 0 mm 4 m/s 756 mmHg 44%
15:00 +30°C° 0 mm 3 m/s 756 mmHg 48%
16:00 +29°C° 0 mm 3 m/s 756 mmHg 52%
17:00 +28°C° 0 mm 3 m/s 756 mmHg 56%
18:00 +27°C° 0 mm 2 m/s 757 mmHg 60%
19:00 +25°C° 0 mm 2 m/s 757 mmHg 65%
20:00 +24°C° 0 mm 2 m/s 758 mmHg 69%
21:00 +24°C° 0 mm 1 m/s 758 mmHg 71%
22:00 +23°C° 0 mm 1 m/s 758 mmHg 73%
23:00 +23°C° 0 mm 1 m/s 758 mmHg 75%
Arată mai mult

Formular de consimțământ

Meteoprog și furnizorii noștri de servicii pot stoca și accesa date personale, precum cookies, identificatori de dispozitiv sau alte tehnologii similare pe dispozitivul dumneavoastră și procesa astfel de date pentru a personaliza conținutul și reclamele, dar și pentru a oferi caracteristici de social media și pentru a analiza traficul.

  • Stocarea și/sau accesarea informațiilor pe dispozitivul dumneavoastră

    Cookies, identificatori de dispozitiv sau alte informații pot fi stocate sau accesate pe dispozitiv în scopurile indicate mai sus.

  • Reclame și conținut personalizat, evaluarea reclamelor și a conținutului, informații despre audiențe și dezvoltarea produselor

    Reclamele și conținutul pot fi personalizate pe baza unui profil. Pot fi adăugate date suplimentare pentru a personaliza mai bine reclamele și conținutul. Performanța reclamelor și conținutului poate fi măsurată. Pot fi obținute informații despre utilizatorii care au văzut reclamele și conținutul. Aceste date pot fi utilizate pentru a dezvolta sau îmbunătăți experiența utilizatorilor, sistemele și software-ul.

Dând clic pe ‘Sunt de acord’, permiteți utilizarea cookie-urilor menționate, a identificatorilor de dispozitiv, balizelor web sau altor tehnologii similare. Setările pot fi modificate din browser-ul dispozitivului dumneavoastră.

În anumite scopuri, interesele legitime pot prima asupra consimțământului. Puteți citi mai multe informații în acest sens în Politica privind Confidențialitatea Datelor și Cookie.